Station History


Daily Summary for February 5, 2012 Units:  English    Metric   Both
« Previous Day
Next Day »
Daily Weekly Monthly Yearly Custom
  High: Low: Average:
Temperature: 69.5 °F 35.0 °F 48.8 °F
Dew Point: 38.7 °F 29.8 °F 33.7 °F
Humidity: 86% 24% 61%
Wind Speed: 4.6mph 0.0mph 2mph
Wind Gust: 4.6mph - -
Wind- - WSW
Pressure: 30.13 in 29.99 in -
Precipitation: 0.00 in    
Historical Graphs
 
 
Tabular Data for February 5, 2012
Time Temperature Dew Point Pressure Wind Wind Speed Wind Gust Humidity Rainfall Rate (Hourly)
00:03 42.2 °F 33.5 °F 30.08 in Calm     71% 0.00 in
00:08 41.8 °F 33.1 °F 30.08 in Calm     71% 0.00 in
00:13 41.5 °F 33.5 °F 30.08 in Calm     73% 0.00 in
00:18 41.4 °F 33.4 °F 30.08 in Calm     73% 0.00 in
00:23 41.1 °F 33.4 °F 30.08 in Calm     74% 0.00 in
00:28 40.9 °F 33.6 °F 30.08 in Calm     75% 0.00 in
00:33 41.3 °F 34.0 °F 30.08 in Calm     75% 0.00 in
00:38 41.7 °F 33.7 °F 30.08 in Calm     73% 0.00 in
00:43 41.9 °F 33.5 °F 30.08 in Calm     72% 0.00 in
00:48 41.8 °F 33.4 °F 30.08 in Calm     72% 0.00 in
00:54 41.7 °F 33.3 °F 30.08 in Calm     72% 0.00 in
00:59 41.7 °F 33.3 °F 30.08 in Calm     72% 0.00 in
01:04 41.6 °F 33.2 °F 30.08 in SW 1.1 mph   72% 0.00 in
01:09 41.3 °F 33.3 °F 30.08 in Calm     73% 0.00 in
01:14 41.2 °F 33.2 °F 30.08 in Calm     73% 0.00 in
01:19 40.8 °F 33.2 °F 30.08 in Calm     74% 0.00 in
01:24 40.5 °F 33.2 °F 30.08 in SW 1.1 mph   75% 0.00 in
01:29 40.4 °F 33.4 °F 30.08 in Calm     76% 0.00 in
01:34 40.1 °F 33.1 °F 30.08 in Calm     76% 0.00 in
01:39 39.8 °F 33.2 °F 30.08 in Calm     77% 0.00 in
01:44 39.7 °F 33.1 °F 30.08 in Calm     77% 0.00 in
01:49 39.5 °F 32.9 °F 30.09 in Calm     77% 0.00 in
01:54 39.1 °F 32.8 °F 30.09 in Calm     78% 0.00 in
01:59 38.9 °F 32.6 °F 30.09 in Calm     78% 0.00 in
02:04 38.5 °F 32.6 °F 30.09 in Calm     79% 0.00 in
02:09 38.3 °F 32.4 °F 30.09 in Calm     79% 0.00 in
02:14 38.1 °F 32.2 °F 30.09 in Calm     79% 0.00 in
02:19 38.4 °F 32.8 °F 30.08 in Calm     80% 0.00 in
02:24 38.7 °F 32.7 °F 30.08 in Calm     79% 0.00 in
02:29 39.0 °F 32.7 °F 30.08 in Calm     78% 0.00 in
02:34 38.9 °F 32.6 °F 30.08 in Calm     78% 0.00 in
02:35 38.9 °F 32.6 °F 30.08 in Calm     78% 0.00 in
02:40 38.6 °F 32.3 °F 30.08 in Calm     78% 0.00 in
02:45 38.3 °F 32.4 °F 30.08 in Calm     79% 0.00 in
02:50 38.0 °F 32.4 °F 30.08 in Calm     80% 0.00 in
02:55 37.7 °F 32.4 °F 30.08 in Calm     81% 0.00 in
03:00 37.3 °F 31.7 °F 30.09 in Calm     80% 0.00 in
03:05 37.0 °F 31.7 °F 30.08 in Calm     81% 0.00 in
03:10 37.0 °F 32.0 °F 30.08 in Calm     82% 0.00 in
03:15 36.9 °F 31.9 °F 30.08 in Calm     82% 0.00 in
03:20 36.8 °F 31.5 °F 30.08 in Calm     81% 0.00 in
03:25 36.8 °F 31.8 °F 30.08 in Calm     82% 0.00 in
03:30 36.7 °F 31.4 °F 30.08 in Calm     81% 0.00 in
03:35 36.5 °F 31.2 °F 30.08 in Calm     81% 0.00 in
03:36 36.5 °F 31.5 °F 30.08 in Calm     82% 0.00 in
03:41 36.4 °F 31.4 °F 30.08 in Calm     82% 0.00 in
03:46 36.3 °F 31.3 °F 30.08 in Calm     82% 0.00 in
03:51 36.3 °F 31.6 °F 30.09 in Calm     83% 0.00 in
03:56 36.2 °F 31.5 °F 30.09 in Calm     83% 0.00 in
04:01 36.3 °F 31.6 °F 30.09 in Calm     83% 0.00 in
04:06 36.2 °F 31.5 °F 30.09 in Calm     83% 0.00 in
04:11 36.1 °F 31.4 °F 30.09 in Calm     83% 0.00 in
04:16 36.1 °F 31.4 °F 30.09 in Calm     83% 0.00 in
04:21 36.1 °F 31.7 °F 30.09 in Calm     84% 0.00 in
04:26 36.1 °F 31.4 °F 30.09 in Calm     83% 0.00 in
04:31 36.0 °F 31.3 °F 30.09 in Calm     83% 0.00 in
04:36 35.9 °F 31.2 °F 30.09 in Calm     83% 0.00 in
04:41 35.7 °F 31.3 °F 30.09 in Calm     84% 0.00 in
04:46 35.7 °F 31.3 °F 30.09 in Calm     84% 0.00 in
04:51 35.6 °F 30.9 °F 30.09 in Calm     83% 0.00 in
04:56 35.6 °F 31.2 °F 30.09 in Calm     84% 0.00 in
05:01 35.7 °F 31.3 °F 30.09 in Calm     84% 0.00 in
05:06 35.6 °F 31.2 °F 30.09 in Calm     84% 0.00 in
05:11 35.5 °F 31.1 °F 30.09 in Calm     84% 0.00 in
05:16 35.4 °F 31.0 °F 30.09 in Calm     84% 0.00 in
05:21 35.4 °F 31.0 °F 30.09 in Calm     84% 0.00 in
05:26 35.3 °F 30.9 °F 30.09 in Calm     84% 0.00 in
05:31 35.2 °F 30.9 °F 30.09 in Calm     84% 0.00 in
05:36 35.1 °F 31.0 °F 30.09 in Calm     85% 0.00 in
05:41 35.0 °F 30.9 °F 30.09 in Calm     85% 0.00 in
05:46 35.1 °F 31.3 °F 30.09 in Calm     86% 0.00 in
05:51 35.3 °F 31.2 °F 30.09 in Calm     85% 0.00 in
05:56 35.4 °F 31.0 °F 30.09 in Calm     84% 0.00 in
06:01 35.2 °F 30.6 °F 30.09 in Calm     83% 0.00 in
06:06 35.1 °F 30.8 °F 30.09 in Calm     84% 0.00 in
06:11 35.0 °F 30.7 °F 30.09 in Calm     84% 0.00 in
06:16 35.1 °F 31.0 °F 30.09 in Calm     85% 0.00 in
06:21 35.3 °F 30.9 °F 30.09 in Calm     84% 0.00 in
06:26 35.7 °F 31.0 °F 30.09 in Calm     83% 0.00 in
06:31 36.1 °F 31.1 °F 30.09 in Calm     82% 0.00 in
06:36 36.5 °F 31.2 °F 30.09 in Calm     81% 0.00 in
06:41 36.7 °F 31.1 °F 30.09 in Calm     80% 0.00 in
06:46 36.7 °F 30.8 °F 30.10 in Calm     79% 0.00 in
06:51 36.5 °F 30.9 °F 30.10 in Calm     80% 0.00 in
06:56 36.5 °F 30.9 °F 30.10 in Calm     80% 0.00 in
07:01 36.3 °F 30.7 °F 30.10 in Calm     80% 0.00 in
07:06 36.2 °F 30.9 °F 30.10 in Calm     81% 0.00 in
07:11 36.5 °F 31.2 °F 30.10 in Calm     81% 0.00 in
07:17 36.8 °F 30.9 °F 30.10 in Calm     79% 0.00 in
07:21 36.8 °F 31.2 °F 30.11 in Calm     80% 0.00 in
07:27 36.7 °F 31.1 °F 30.11 in Calm     80% 0.00 in
07:32 36.8 °F 31.5 °F 30.11 in Calm     81% 0.00 in
07:37 37.2 °F 31.6 °F 30.11 in Calm     80% 0.00 in
07:42 37.7 °F 31.8 °F 30.11 in Calm     79% 0.00 in
07:47 38.1 °F 31.8 °F 30.11 in Calm     78% 0.00 in
07:52 38.4 °F 32.1 °F 30.11 in WSW 1.1 mph 1.1 mph 78% 0.00 in
07:57 38.5 °F 32.2 °F 30.11 in Calm     78% 0.00 in
08:02 38.6 °F 32.3 °F 30.11 in West 1.1 mph   78% 0.00 in
08:07 38.7 °F 32.1 °F 30.11 in Calm     77% 0.00 in
08:12 38.9 °F 32.0 °F 30.11 in Calm     76% 0.00 in
08:17 39.3 °F 32.0 °F 30.11 in Calm     75% 0.00 in
08:22 39.7 °F 32.4 °F 30.11 in Calm     75% 0.00 in
08:27 40.2 °F 31.9 °F 30.11 in Calm     72% 0.00 in
08:32 40.9 °F 32.6 °F 30.11 in Calm     72% 0.00 in
08:37 41.6 °F 32.5 °F 30.12 in SSW 1.1 mph   70% 0.00 in
08:42 42.2 °F 32.8 °F 30.12 in SW 1.0 mph 1.0 mph 69% 0.00 in
08:47 43.1 °F 33.3 °F 30.12 in Calm     68% 0.00 in
08:52 43.8 °F 33.9 °F 30.12 in SSW 1.1 mph 1.1 mph 68% 0.00 in
08:57 44.6 °F 34.3 °F 30.12 in Calm     67% 0.00 in
09:02 45.1 °F 34.8 °F 30.12 in SSW 1.1 mph   67% 0.00 in
09:07 45.5 °F 35.5 °F 30.12 in Calm     68% 0.00 in
09:12 46.1 °F 36.1 °F 30.13 in SW 3.5 mph 3.5 mph 68% 0.00 in
09:17 46.6 °F 36.6 °F 30.13 in SSW 3.5 mph 3.5 mph 68% 0.00 in
09:22 47.1 °F 37.1 °F 30.13 in SSE 2.3 mph 2.3 mph 68% 0.00 in
09:27 47.5 °F 37.5 °F 30.13 in SW 1.1 mph 1.1 mph 68% 0.00 in
09:32 47.9 °F 37.5 °F 30.13 in SW 1.1 mph 1.1 mph 67% 0.00 in
09:37 48.3 °F 37.5 °F 30.13 in SW 1.1 mph 1.1 mph 66% 0.00 in
09:40 48.6 °F 37.4 °F 30.13 in SW 1.1 mph   65% 0.00 in
09:45 49.0 °F 37.7 °F 30.13 in SW 1.1 mph 1.1 mph 65% 0.00 in
09:46 49.0 °F 37.7 °F 30.13 in SW 1.1 mph   65% 0.00 in
09:51 49.5 °F 37.8 °F 30.13 in WSW 1.0 mph 1.0 mph 64% 0.00 in
09:56 49.9 °F 38.2 °F 30.13 in SW 1.1 mph   64% 0.00 in
10:01 50.2 °F 38.5 °F 30.12 in Calm     64% 0.00 in
10:06 50.6 °F 38.1 °F 30.12 in Calm     62% 0.00 in
10:11 51.2 °F 38.2 °F 30.12 in SW 1.1 mph   61% 0.00 in
10:16 51.7 °F 37.4 °F 30.12 in SW 2.3 mph 2.3 mph 58% 0.00 in
10:21 52.4 °F 38.0 °F 30.12 in WSW 1.1 mph   58% 0.00 in
10:26 52.8 °F 37.5 °F 30.12 in SSW 1.1 mph 1.1 mph 56% 0.00 in
10:31 53.0 °F 37.3 °F 30.12 in SW 1.1 mph   55% 0.00 in
10:36 53.4 °F 37.6 °F 30.12 in SSW 1.1 mph 1.1 mph 55% 0.00 in
10:41 53.9 °F 38.6 °F 30.12 in West 1.1 mph 1.1 mph 56% 0.00 in
10:46 54.3 °F 38.0 °F 30.12 in West 3.5 mph 3.5 mph 54% 0.00 in
10:51 54.8 °F 38.0 °F 30.12 in West 2.3 mph 2.3 mph 53% 0.00 in
10:56 55.5 °F 38.1 °F 30.12 in SE 1.1 mph 1.1 mph 52% 0.00 in
11:01 55.9 °F 37.0 °F 30.12 in WNW 1.1 mph 1.1 mph 49% 0.00 in
11:06 56.3 °F 37.4 °F 30.11 in West 1.1 mph 1.1 mph 49% 0.00 in
11:11 56.6 °F 37.1 °F 30.11 in SW 1.0 mph   48% 0.00 in
11:16 57.2 °F 38.7 °F 30.11 in SW 1.1 mph   50% 0.00 in
11:21 57.8 °F 37.1 °F 30.11 in SSW 1.0 mph 1.0 mph 46% 0.00 in
11:26 58.1 °F 36.9 °F 30.10 in Calm   0.4 mph 45% 0.00 in
11:32 58.5 °F 37.2 °F 30.10 in SW 1.1 mph 1.1 mph 45% 0.00 in
11:36 59.1 °F 38.3 °F 30.10 in West 1.1 mph   46% 0.00 in
11:41 59.4 °F 36.9 °F 30.10 in NNW 1.1 mph 1.1 mph 43% 0.00 in
11:47 59.4 °F 36.9 °F 30.09 in NNW 1.1 mph 1.1 mph 43% 0.00 in
11:52 59.9 °F 36.1 °F 30.09 in SSW 2.3 mph 2.3 mph 41% 0.00 in
11:57 60.3 °F 38.3 °F 30.09 in North 1.0 mph 1.0 mph 44% 0.00 in
12:02 61.1 °F 37.2 °F 30.09 in WNW 1.1 mph 1.1 mph 41% 0.00 in
12:07 61.7 °F 37.7 °F 30.08 in NNW 2.3 mph 2.3 mph 41% 0.00 in
12:12 62.2 °F 36.3 °F 30.08 in NNE 1.1 mph   38% 0.00 in
12:17 62.6 °F 37.9 °F 30.08 in NNE 2.3 mph 2.3 mph 40% 0.00 in
12:22 62.9 °F 37.5 °F 30.08 in NNW 2.3 mph 2.3 mph 39% 0.00 in
12:27 63.1 °F 37.7 °F 30.07 in NW 3.5 mph 3.5 mph 39% 0.00 in
12:32 63.5 °F 38.1 °F 30.07 in WNW 2.3 mph 2.3 mph 39% 0.00 in
12:37 63.9 °F 37.1 °F 30.07 in NNE 2.3 mph 2.3 mph 37% 0.00 in
12:42 64.5 °F 38.3 °F 30.07 in NNW 1.1 mph 1.1 mph 38% 0.00 in
12:47 65.1 °F 36.0 °F 30.07 in WNW 2.3 mph 2.3 mph 34% 0.00 in
12:52 65.5 °F 36.4 °F 30.06 in SW 1.1 mph 1.1 mph 34% 0.00 in
12:57 65.8 °F 36.6 °F 30.06 in NW 4.6 mph 4.6 mph 34% 0.00 in
13:02 66.0 °F 37.5 °F 30.06 in SSE 1.1 mph 1.1 mph 35% 0.00 in
13:07 66.3 °F 34.7 °F 30.06 in West 3.5 mph 3.5 mph 31% 0.00 in
13:12 66.8 °F 33.5 °F 30.06 in NNW 4.0 mph 4.0 mph 29% 0.00 in
13:17 67.1 °F 36.2 °F 30.06 in WSW 2.3 mph 2.3 mph 32% 0.00 in
13:22 67.2 °F 34.7 °F 30.05 in SSE 1.1 mph 1.1 mph 30% 0.00 in
13:27 67.5 °F 34.1 °F 30.05 in North 3.5 mph 3.5 mph 29% 0.00 in
13:32 67.6 °F 35.9 °F 30.05 in NE 1.1 mph 1.1 mph 31% 0.00 in
13:37 68.0 °F 35.4 °F 30.05 in North 2.3 mph 2.3 mph 30% 0.00 in
13:42 67.9 °F 33.6 °F 30.05 in WNW 2.3 mph 2.3 mph 28% 0.00 in
13:47 67.7 °F 32.5 °F 30.05 in NW 2.3 mph 2.3 mph 27% 0.00 in
13:52 67.5 °F 34.1 °F 30.04 in NW 1.1 mph 1.1 mph 29% 0.00 in
13:57 68.1 °F 35.5 °F 30.04 in WNW 3.5 mph 3.5 mph 30% 0.00 in
14:02 67.9 °F 35.3 °F 30.04 in West 3.5 mph 3.5 mph 30% 0.00 in
14:07 68.1 °F 35.5 °F 30.04 in NW 3.5 mph 3.5 mph 30% 0.00 in
14:12 68.1 °F 34.6 °F 30.04 in NW 3.5 mph 3.5 mph 29% 0.00 in
14:17 68.5 °F 34.1 °F 30.04 in NW 2.3 mph 2.3 mph 28% 0.00 in
14:22 69.1 °F 35.5 °F 30.04 in NW 3.5 mph 3.5 mph 29% 0.00 in
14:27 69.2 °F 31.9 °F 30.04 in WSW 1.1 mph 1.1 mph 25% 0.00 in
14:32 68.9 °F 31.6 °F 30.03 in NNW 3.5 mph 3.5 mph 25% 0.00 in
14:37 69.0 °F 32.7 °F 30.03 in WNW 2.3 mph 2.3 mph 26% 0.00 in
14:42 69.4 °F 32.0 °F 30.03 in WSW 2.3 mph 2.3 mph 25% 0.00 in
14:47 69.5 °F 32.1 °F 30.03 in NNE 3.5 mph 3.5 mph 25% 0.00 in
14:52 69.3 °F 30.9 °F 30.03 in WSW 3.5 mph 3.5 mph 24% 0.00 in
14:57 69.2 °F 31.9 °F 30.03 in West 3.0 mph 3.0 mph 25% 0.00 in
15:02 68.7 °F 32.4 °F 30.02 in SSE 3.5 mph 3.5 mph 26% 0.00 in
15:07 68.3 °F 33.0 °F 30.02 in SW 2.3 mph 2.3 mph 27% 0.00 in
15:12 68.0 °F 34.5 °F 30.02 in WNW 1.1 mph 1.1 mph 29% 0.00 in
15:17 67.9 °F 32.7 °F 30.02 in NW 3.5 mph 3.5 mph 27% 0.00 in
15:22 68.0 °F 30.8 °F 30.02 in NNW 4.6 mph 4.6 mph 25% 0.00 in
15:27 68.0 °F 29.8 °F 30.02 in NNE 3.0 mph 3.0 mph 24% 0.00 in
15:32 68.3 °F 33.0 °F 30.02 in NW 1.1 mph 1.1 mph 27% 0.00 in
15:37 68.6 °F 33.3 °F 30.01 in WNW 2.3 mph 2.3 mph 27% 0.00 in
15:42 68.7 °F 33.3 °F 30.01 in NNW 2.3 mph 2.3 mph 27% 0.00 in
15:47 68.5 °F 35.0 °F 30.01 in NNE 3.5 mph 3.5 mph 29% 0.00 in
15:52 68.6 °F 33.3 °F 30.01 in North 2.3 mph 2.3 mph 27% 0.00 in
15:57 68.6 °F 32.3 °F 30.01 in North 2.3 mph 2.3 mph 26% 0.00 in
16:02 68.7 °F 31.4 °F 30.01 in West 1.1 mph 1.1 mph 25% 0.00 in
16:07 68.4 °F 31.2 °F 30.01 in North 3.5 mph 3.5 mph 25% 0.00 in
16:12 67.8 °F 31.6 °F 30.01 in West 2.3 mph 2.3 mph 26% 0.00 in
16:17 67.4 °F 31.3 °F 30.00 in NW 1.1 mph   26% 0.00 in
16:22 67.0 °F 31.0 °F 30.00 in North 2.0 mph 2.0 mph 26% 0.00 in
16:27 66.5 °F 31.5 °F 30.00 in NW 2.3 mph 2.3 mph 27% 0.00 in
16:32 66.2 °F 31.2 °F 30.00 in North 3.5 mph 3.5 mph 27% 0.00 in
16:37 65.8 °F 32.6 °F 30.00 in Calm     29% 0.00 in
16:42 65.4 °F 31.4 °F 30.00 in North 1.1 mph 1.1 mph 28% 0.00 in
16:47 64.9 °F 31.9 °F 30.00 in NNW 1.1 mph 1.1 mph 29% 0.00 in
16:52 64.6 °F 31.6 °F 30.00 in NNW 1.1 mph 1.1 mph 29% 0.00 in
16:57 64.2 °F 32.1 °F 30.00 in Calm     30% 0.00 in
17:02 63.7 °F 31.7 °F 29.99 in NNW 1.0 mph   30% 0.00 in
17:07 63.2 °F 32.0 °F 29.99 in Calm     31% 0.00 in
17:12 62.7 °F 31.6 °F 29.99 in Calm     31% 0.00 in
17:17 62.2 °F 32.0 °F 29.99 in Calm     32% 0.00 in
17:22 61.6 °F 32.2 °F 29.99 in Calm     33% 0.00 in
17:27 60.9 °F 33.0 °F 29.99 in Calm     35% 0.00 in
17:32 59.8 °F 32.8 °F 29.99 in Calm     36% 0.00 in
17:37 58.8 °F 33.2 °F 30.00 in Calm     38% 0.00 in
17:42 57.7 °F 32.9 °F 29.99 in Calm     39% 0.00 in
17:47 56.8 °F 32.7 °F 29.99 in Calm     40% 0.00 in
17:52 55.9 °F 33.1 °F 29.99 in Calm     42% 0.00 in
17:57 55.3 °F 33.2 °F 30.00 in Calm     43% 0.00 in
18:02 54.7 °F 33.2 °F 30.00 in Calm     44% 0.00 in
18:07 54.2 °F 33.9 °F 30.00 in Calm     46% 0.00 in
18:12 53.7 °F 34.5 °F 30.00 in Calm     48% 0.00 in
18:17 53.2 °F 34.0 °F 30.00 in Calm     48% 0.00 in
18:22 52.9 °F 33.7 °F 30.00 in Calm     48% 0.00 in
18:27 53.2 °F 34.0 °F 30.00 in Calm     48% 0.00 in
18:32 54.1 °F 34.8 °F 30.00 in Calm     48% 0.00 in
18:37 54.6 °F 33.7 °F 30.00 in Calm     45% 0.00 in
18:42 54.4 °F 33.5 °F 30.00 in Calm     45% 0.00 in
18:47 53.9 °F 34.1 °F 30.00 in Calm     47% 0.00 in
18:52 53.2 °F 34.5 °F 29.99 in Calm     49% 0.00 in
18:57 52.5 °F 34.9 °F 29.99 in Calm     51% 0.00 in
19:02 51.9 °F 34.3 °F 30.00 in Calm     51% 0.00 in
19:07 51.6 °F 34.0 °F 29.99 in Calm     51% 0.00 in
19:12 51.4 °F 33.9 °F 30.00 in Calm     51% 0.00 in
19:17 51.0 °F 34.5 °F 30.00 in Calm     53% 0.00 in
19:23 50.5 °F 34.5 °F 30.00 in Calm     54% 0.00 in
19:28 49.9 °F 34.4 °F 30.00 in Calm     55% 0.00 in
19:33 49.6 °F 34.5 °F 30.00 in Calm     56% 0.00 in
19:38 49.5 °F 34.9 °F 30.00 in Calm     57% 0.00 in
19:43 49.3 °F 34.7 °F 30.00 in Calm     57% 0.00 in
19:48 49.1 °F 35.4 °F 30.00 in Calm     59% 0.00 in
19:53 48.7 °F 35.0 °F 30.00 in Calm     59% 0.00 in
19:58 48.2 °F 34.5 °F 30.00 in Calm     59% 0.00 in
20:03 47.7 °F 34.9 °F 30.00 in Calm     61% 0.00 in
20:08 47.4 °F 35.0 °F 30.00 in Calm     62% 0.00 in
20:13 46.9 °F 35.0 °F 30.00 in Calm     63% 0.00 in
20:18 46.5 °F 35.4 °F 30.00 in Calm     65% 0.00 in
20:23 46.1 °F 35.0 °F 30.00 in Calm     65% 0.00 in
20:28 45.7 °F 35.4 °F 30.00 in Calm     67% 0.00 in
20:33 45.4 °F 35.1 °F 30.01 in Calm     67% 0.00 in
20:38 45.2 °F 35.3 °F 30.01 in Calm     68% 0.00 in
20:43 44.8 °F 35.2 °F 30.01 in Calm     69% 0.00 in
20:48 44.6 °F 35.8 °F 30.01 in Calm     71% 0.00 in
20:53 44.4 °F 35.6 °F 30.01 in Calm     71% 0.00 in
20:58 44.0 °F 35.2 °F 30.01 in Calm     71% 0.00 in
21:00 43.9 °F 35.5 °F 30.01 in Calm     72% 0.00 in
21:01 43.8 °F 35.4 °F 30.01 in Calm     72% 0.00 in
21:06 43.4 °F 35.0 °F 30.01 in Calm     72% 0.00 in
21:11 43.2 °F 35.5 °F 30.01 in Calm     74% 0.00 in
21:16 43.2 °F 35.5 °F 30.01 in Calm     74% 0.00 in
21:21 43.1 °F 35.0 °F 30.01 in Calm     73% 0.00 in
21:26 43.4 °F 35.7 °F 30.01 in Calm     74% 0.00 in
21:31 43.4 °F 35.0 °F 30.01 in Calm     72% 0.00 in
21:36 43.5 °F 34.7 °F 30.01 in Calm     71% 0.00 in
21:41 43.9 °F 34.7 °F 30.01 in Calm     70% 0.00 in
21:46 44.2 °F 34.7 °F 30.01 in Calm     69% 0.00 in
21:51 44.3 °F 34.8 °F 30.01 in Calm     69% 0.00 in
21:56 44.3 °F 34.8 °F 30.01 in Calm     69% 0.00 in
22:01 44.1 °F 34.6 °F 30.01 in Calm     69% 0.00 in
22:06 44.1 °F 34.6 °F 30.01 in Calm     69% 0.00 in
22:11 44.3 °F 34.4 °F 30.01 in Calm     68% 0.00 in
22:16 44.1 °F 34.2 °F 30.01 in Calm     68% 0.00 in
22:21 43.8 °F 34.3 °F 30.01 in Calm     69% 0.00 in
22:26 43.6 °F 34.1 °F 30.01 in Calm     69% 0.00 in
22:31 43.4 °F 34.3 °F 30.02 in Calm     70% 0.00 in
22:36 43.0 °F 34.2 °F 30.02 in Calm     71% 0.00 in
22:41 42.7 °F 34.3 °F 30.01 in Calm     72% 0.00 in
22:46 42.4 °F 34.0 °F 30.01 in Calm     72% 0.00 in
22:51 42.1 °F 34.4 °F 30.02 in Calm     74% 0.00 in
22:56 41.8 °F 34.1 °F 30.02 in Calm     74% 0.00 in
23:01 41.7 °F 34.0 °F 30.02 in Calm     74% 0.00 in
23:06 41.4 °F 33.7 °F 30.02 in Calm     74% 0.00 in
23:11 41.0 °F 33.7 °F 30.02 in Calm     75% 0.00 in
23:16 40.6 °F 33.6 °F 30.01 in Calm     76% 0.00 in
23:21 40.4 °F 33.8 °F 30.02 in Calm     77% 0.00 in
23:26 40.8 °F 34.1 °F 30.02 in Calm     77% 0.00 in
23:31 41.0 °F 34.0 °F 30.02 in Calm     76% 0.00 in
23:36 40.9 °F 33.9 °F 30.02 in Calm     76% 0.00 in
23:41 40.7 °F 34.0 °F 30.01 in Calm     77% 0.00 in
23:46 40.4 °F 34.1 °F 30.01 in Calm     78% 0.00 in
23:51 40.0 °F 33.7 °F 30.01 in Calm     78% 0.00 in
23:56 39.7 °F 33.7 °F 30.01 in Calm     79% 0.00 in
Compliments of Weather Underground